Location: Newark
(44.3681°N, 100.3364°W)
Time: 14:56:18
(UTC+00:00)

Explorer 7 - Pass Details

Date: 26 February 2020
Orbit: 485 x 679 km, 50.3° (Epoch: 05 April)

Event Time Altitude Azimuth Distance (km) Brightness Sun altitude
Rises 18:10:37 0° 254° (WSW) 2,989 10.6 36.0°
Reaches altitude 10° 18:13:02 10° 258° (WSW) 2,058 9.8 36.1°
Maximum altitude 18:17:44 61° 339° (NNW) 718 7.6 36.3°
Drops below altitude 10° 18:22:12 10° 60° (ENE) 1,952 9.5 36.4°
Sets 18:24:27 0° 64° (ENE) 2,823 10.3 36.5°
